Location: Cuiry
(49.3858°N, 3.7708°E)
Time: 23:27:29
(UTC+00:00)

Cosmos 2341 Rocket - Pass Details

Date: 12 January 2026
Orbit: 967 x 1004 km, 82.9° (Epoch: 17 February)

Event Time Altitude Azimuth Distance (km) Brightness Sun altitude
Rises 17:53:56 0° 349° (N) 3,731 7.0 -16.3°
Reaches altitude 10° 17:56:29 10° 348° (NNW) 2,773 6.4 -16.7°
Maximum altitude 18:02:49 76° 265° (W) 1,024 4.2 -17.7°
Drops below altitude 10° 18:09:04 10° 180° (S) 2,728 6.5 -18.7°
Sets 18:11:34 0° 179° (S) 3,667 7.1 -19.1°
